Location: Vinland
(47.7731°N, 122.6974°W)
Time: 22:24:03
(UTC+00:00)

S-56A Canister/Altair - Pass Details

Date: 06 April 2023
Orbit: 639 x 2492 km, 38.9° (Epoch: 01 June)

Event Time Altitude Azimuth Distance (km) Brightness Sun altitude
Rises 06:01:07 0° 277° (W) 5,242 12.4 -28.5°
Reaches altitude 10° 06:05:03 10° 266° (W) 4,499 11.8 -28.9°
Maximum altitude 06:14:45 26° 217° (SW) 3,782 10.8 -29.9°
Enters shadow 06:18:21 24° 197° (SSW) 4,026 10.8 -30.2°
